GTI8874 RJOO-YBBN

Flight info

Callsign GTI8874
Flight time N/A
Altitude 35000
Route IZUMI V55 KEC A597 MONPI/N0492F370 A597 UNZ R584 JUNIE DCT KALKO/N0486F390 G205 LAMEK B220 KELPI Y89 BESBO Y177 SMOKA
Aircraft B748/H-SDE3FGHIM1M2RWXY/LB1

Departure

Time 2026-05-07 12:43
Airport Osaka Itami International Airport (RJOO)

Arrival

Time N/A
Airport Brisbane International Airport (YBBN)
Time Latitude Longitude Altitude Speed Heading
2026-05-07 12:20 34.79376 135.43359 51 ft 0 kts 225°
2026-05-07 12:30 34.79385 135.43370 51 ft 3 kts 225°
2026-05-07 12:31 34.79399 135.43387 51 ft 3 kts 206°
2026-05-07 12:31 34.79419 135.43394 51 ft 3 kts 163°
2026-05-07 12:31 34.79433 135.43386 51 ft 0 kts 138°
2026-05-07 12:34 34.79376 135.43359 60 ft 0 kts 225°
2026-05-07 12:34 34.79328 135.43539 60 ft 0 kts 134°
2026-05-07 12:34 34.79326 135.43541 60 ft 2 kts 135°
2026-05-07 12:34 34.79315 135.43549 60 ft 2 kts 160°
2026-05-07 12:35 34.79301 135.43547 59 ft 2 kts 191°
2026-05-07 12:35 34.79289 135.43536 56 ft 2 kts 225°
2026-05-07 12:35 34.79268 135.43508 56 ft 7 kts 226°
2026-05-07 12:35 34.79224 135.43463 52 ft 9 kts 210°
2026-05-07 12:36 34.79156 135.43446 54 ft 12 kts 175°
2026-05-07 12:36 34.79060 135.43460 52 ft 16 kts 178°
2026-05-07 12:36 34.78944 135.43427 54 ft 18 kts 193°
2026-05-07 12:36 34.78815 135.43439 51 ft 20 kts 160°
2026-05-07 12:37 34.78690 135.43510 54 ft 20 kts 154°
2026-05-07 12:37 34.78568 135.43585 46 ft 19 kts 147°
2026-05-07 12:37 34.78471 135.43679 47 ft 17 kts 141°
2026-05-07 12:37 34.78390 135.43771 48 ft 15 kts 136°
2026-05-07 12:38 34.78321 135.43854 50 ft 13 kts 135°
2026-05-07 12:38 34.78265 135.43922 50 ft 10 kts 135°
2026-05-07 12:38 34.78212 135.43985 51 ft 12 kts 135°
2026-05-07 12:38 34.78149 135.44062 53 ft 14 kts 135°
2026-05-07 12:39 34.78077 135.44149 53 ft 15 kts 135°
2026-05-07 12:39 34.77994 135.44249 50 ft 18 kts 135°
2026-05-07 12:39 34.77898 135.44364 50 ft 20 kts 135°
2026-05-07 12:39 34.77787 135.44498 50 ft 23 kts 135°
2026-05-07 12:40 34.77672 135.44638 50 ft 24 kts 135°
2026-05-07 12:40 34.77553 135.44784 52 ft 25 kts 134°
2026-05-07 12:40 34.77430 135.44934 53 ft 25 kts 135°
2026-05-07 12:40 34.77305 135.45086 53 ft 17 kts 131°
2026-05-07 12:41 34.77268 135.45144 53 ft 3 kts 155°
2026-05-07 12:41 34.77256 135.45141 54 ft 1 kts 199°
2026-05-07 12:41 34.77253 135.45138 54 ft 0 kts 212°
2026-05-07 12:41 34.77253 135.45137 54 ft 0 kts 214°
2026-05-07 12:42 34.77253 135.45124 52 ft 0 kts 298°
2026-05-07 12:42 34.77271 135.45105 53 ft 3 kts 329°
2026-05-07 12:42 34.77374 135.44996 52 ft 55 kts 315°
2026-05-07 12:42 34.77839 135.44439 50 ft 133 kts 315°
2026-05-07 12:43 34.78657 135.43434 62 ft 199 kts 313°
2026-05-07 12:43 34.79726 135.42145 588 ft 230 kts 313°
2026-05-07 12:43 34.80567 135.40394 1195 ft 256 kts 283°
2026-05-07 12:43 34.80575 135.38191 1810 ft 251 kts 252°
2026-05-07 12:44 34.79754 135.36490 2392 ft 225 kts 220°
2026-05-07 12:44 34.78409 135.35698 2963 ft 219 kts 188°
2026-05-07 12:44 34.76920 135.35968 3541 ft 219 kts 159°
2026-05-07 12:44 34.75543 135.36737 4122 ft 216 kts 160°
2026-05-07 12:45 34.74144 135.37340 4690 ft 212 kts 169°
2026-05-07 12:45 34.72682 135.37665 5041 ft 217 kts 179°
2026-05-07 12:45 34.71166 135.37584 5325 ft 220 kts 194°